[[{"header":{"parameterUnit":"m.s-1","parameterCategory":2,"la1":30.2991,"la2":30.254,"lo1":-89.0895,"lo2":-89.0444,"dy":0.0017,"dx":0.0017,"nx":28,"ny":28,"refTime":"2024-06-28T09:00:00:Z","depth":"0","parameterNumber":2,"parameterNumberName":"U-component_of_CURRENTS"},"data":[0,0,0,0,0,0,0,0,0,0,0,0,0,0,0,0,0,0,0,0,0,0,0,0,0,0,0,0,0,0,0,0,0,0,0,0,0,0,0,0,0,0,0,0,0,0,0,0,0,0,0,0,0,0,0,0,0,0,0.1501,0.1501,0,0.1512,0.1512,0.1513,0.147,0.1469,0.1467,0.1466,0.1469,0.147,0.1472,0,0,0,0,0,0,0,0,0,0,0,0,0,0.1499,0.1499,0.1501,0.1501,0.1501,0.1512,0.1512,0.1513,0.1471,0.1469,0.1467,0.1465,0.1468,0.147,0.1472,0,0,0,0,0,0,0,0,0,0,0,0,0,0.1508,0.1499,0.1501,0.1478,0.1475,0.1512,0.1512,0.1513,0.1471,0.1469,0.1466,0.1464,0.1467,0.147,0.1472,0.1538,0,0,0.148,0.1481,0,0,0,0,0,0,0,0,0.1507,0.1509,0.1481,0.1479,0.1477,0.1483,0.1512,0.1519,0.1472,0.1478,0.1466,0.1463,0.1472,0.1474,0.1488,0.1538,0.1538,0.148,0.1482,0.1483,0.1483,0,0,0,0,0,0,0,0.1507,0.1508,0.151,0.1481,0.1478,0.1485,0.1483,0.1514,0.1492,0.1477,0.1473,0.1467,0.1471,0.1486,0.1488,0.1538,0.148,0.1482,0.1484,0.1485,0.1584,0.1585,0,0,0,0,0,0,0.1496,0.1508,0.151,0.151,0.1481,0.1486,0.1485,0.1487,0.1492,0.1489,0.147,0.1465,0.1483,0.1485,0.1487,0.1517,0.1483,0.1485,0.1486,0.1583,0.1584,0.1585,0,0,0,0,0,0,0.1497,0.1497,0.1509,0.1505,0.1506,0.1488,0.1492,0.1489,0.1496,0.1485,0.1482,0.1478,0.1481,0.1484,0.1499,0.1518,0.1486,0.1488,0.1581,0.1583,0.1585,0.1606,0,0,0,0,0,0,0.1497,0.1497,0.1506,0.1504,0.1506,0.1528,0.1494,0.1491,0.1495,0.1489,0.1492,0.149,0.1479,0.1496,0.1502,0.1521,0.149,0.158,0.1582,0.1584,0.1604,0.1608,0.1612,0,0,0,0,0,0.1497,0.1505,0.1506,0.1506,0.1514,0.1528,0.1531,0.1512,0.1498,0.1509,0.15,0.149,0.1513,0.1499,0.1506,0.1526,0.1579,0.1582,0.1584,0.1602,0.1607,0.1612,0,0,0,0,0,0,0.1517,0.1502,0.1502,0.1509,0.1519,0.1519,0.1527,0.1522,0.1529,0.1518,0.1509,0.1508,0.1522,0.1532,0.1515,0.1561,0.1545,0.1549,0.1556,0.1561,0.1565,0.158,0.1492,0,0,0,0,0,0.1526,0.1519,0.1524,0.1531,0.1538,0.1541,0.1547,0.1535,0.1535,0.1536,0.1535,0.1538,0.1545,0.1556,0.1561,0.1603,0.1628,0.162,0.1624,0.1627,0.1644,0.1702,0.1713,0.1594,0.1594,0.1594,0,0,0.1527,0.1525,0.1518,0.1533,0.1541,0.1548,0.1539,0.1546,0.1549,0.1538,0.1547,0.155,0.1557,0.1579,0.159,0.1588,0.1674,0.1631,0.1633,0.1649,0.1706,0.1717,0.1728,0.1596,0.1596,0.1595,0,0,0.152,0.154,0.1526,0.1539,0.1547,0.1558,0.1562,0.157,0.1572,0.1587,0.1573,0.1595,0.1607,0.1623,0.163,0.1673,0.1685,0.167,0.1715,0.177,0.178,0.179,0.1832,0.1845,0.1682,0.1683,0.1683,0,0.1526,0.1518,0.153,0.153,0.154,0.1562,0.1565,0.1582,0.159,0.1604,0.1583,0.1624,0.163,0.1674,0.1682,0.1684,0.1711,0.1691,0.1776,0.1786,0.1795,0.1836,0.1851,0.1684,0.1684,0.1684,0.1683,0,0.1507,0.1508,0.1511,0.1516,0.1535,0.1547,0.1569,0.1592,0.1601,0.1613,0.1651,0.167,0.1697,0.1706,0.1707,0.1781,0.1776,0.1764,0.1762,0.1808,0.1849,0.1863,0.1686,0.1685,0.1685,0.1685,0,0,0.1514,0.1495,0.1501,0.1502,0.1531,0.1549,0.1572,0.161,0.1637,0.1655,0.1696,0.1727,0.175,0.1763,0.1781,0.1841,0.1929,0.1839,0.1841,0.1879,0.2048,0.2107,0.2128,0.193,0.1933,0.1935,0.2047,0,0.1505,0.149,0.149,0.1502,0.1508,0.1542,0.157,0.1606,0.1642,0.1692,0.1735,0.1775,0.1768,0.1796,0.1853,0.191,0.1969,0.19,0.2,0.2003,0.2049,0.2148,0.2231,0.2345,0.2062,0.2064,0.2066,0,0.1505,0.1493,0.1485,0.1503,0.1514,0.1526,0.1599,0.1623,0.1696,0.1724,0.1778,0.181,0.1902,0.1887,0.2016,0.1971,0.2018,0.206,0.2064,0.2127,0.2091,0.2255,0.2382,0.2407,0.2088,0.2086,0.2085,0,0.1521,0.151,0.1505,0.1509,0.1524,0.1539,0.1567,0.1633,0.1672,0.1759,0.1799,0.1886,0.1946,0.202,0.2105,0.2068,0.225,0.2201,0.2296,0.2298,0.2396,0.2404,0.2564,0.2301,0.2301,0.2301,0.2301,0,0.1529,0.1536,0.1508,0.1505,0.1529,0.1544,0.1596,0.1634,0.1704,0.1761,0.1822,0.1894,0.1986,0.2088,0.2144,0.2287,0.228,0.2342,0.2353,0.2405,0.2412,0.2458,0.24,0.2305,0.2304,0.2303,0.2303,0,0.1553,0.1534,0.1527,0.152,0.1528,0.155,0.1599,0.1638,0.1703,0.1782,0.1812,0.1928,0.2077,0.2172,0.2318,0.2353,0.2451,0.251,0.2565,0.2582,0.2681,0.2619,0.2547,0.2507,0.2639,0.2642,0.2644,0,0.1565,0.1554,0.1531,0.1533,0.1527,0.1558,0.1584,0.1637,0.1676,0.1804,0.1842,0.2007,0.2139,0.2384,0.2523,0.2674,0.2557,0.2787,0.2738,0.2746,0.2685,0.2436,0.2387,0.2867,0.2871,0.2874,0.2876,0,0.1583,0.1566,0.1547,0.1538,0.1549,0.1565,0.1597,0.1627,0.1698,0.1778,0.1906,0.203,0.2309,0.2546,0.2754,0.2836,0.2723,0.2853,0.2866,0.2902,0.2638,0.2587,0.2705,0.2903,0.2901,0.2899,0.2897,0.2896,0.1602,0.1586,0.1551,0.155,0.1553,0.1559,0.1574,0.162,0.169,0.1795,0.193,0.2118,0.2504,0.2845,0.2942,0.3159,0.2914,0.3155,0.3086,0.2836,0.2783,0.296,0.3161,0.316,0.3159,0.3158,0.3157,0,0.1611,0.159,0.1576,0.1552,0.1542,0.1552,0.1574,0.1586,0.1653,0.1794,0.1935,0.2324,0.2697,0.2988,0.3339,0.3389,0.3225,0.336,0.3074,0.3021,0.3254,0.3261,0.3489,0.3489,0.3489,0.3489,0.3489,0.3489,0.1613,0.1593,0.1568,0.1545,0.1532,0.1519,0.1525,0.1548,0.1627,0.1793,0.1973,0.2154,0.2581,0.3157,0.3462,0.3481,0.3285,0.321,0.3082,0.3345,0.332,0.3296,0.3296,0.3528,0.3528,0.2817,0.2812,0.2809]},{"header":{"parameterUnit":"m.s-1","parameterCategory":2,"la1":30.2991,"la2":30.254,"lo1":-89.0895,"lo2":-89.0444,"dy":0.0017,"dx":0.0017,"nx":28,"ny":28,"refTime":"2024-06-28T09:00:00:Z","depth":"0","parameterNumber":3,"parameterNumberName":"V-component_of_CURRENTS"},"data":[0,0,0,0,0,0,0,0,0,0,0,0,0,0,0,0,0,0,0,0,0,0,0,0,0,0,0,0,0,0,0,0,0,0,0,0,0,0,0,0,0,0,0,0,0,0,0,0,0,0,0,0,0,0,0,0,0,0,-0.008,-0.008,0,-0.0054,-0.0053,-0.0053,-0.0054,-0.0054,-0.0055,-0.0056,-0.0144,-0.0146,-0.0148,0,0,0,0,0,0,0,0,0,0,0,0,0,-0.0079,-0.0079,-0.008,-0.008,-0.0079,-0.0054,-0.0053,-0.0053,-0.0054,-0.0054,-0.0055,-0.0056,-0.0143,-0.0146,-0.0148,0,0,0,0,0,0,0,0,0,0,0,0,0,-0.0066,-0.0079,-0.008,-0.0079,-0.0079,-0.0054,-0.0053,-0.0052,-0.0054,-0.0054,-0.0055,-0.0056,-0.0143,-0.0145,-0.0148,-0.0147,0,0,-0.0156,-0.0157,0,0,0,0,0,0,0,0,-0.0067,-0.0066,-0.0079,-0.0079,-0.0079,-0.006,-0.0085,-0.009,-0.0053,-0.006,-0.0056,-0.0057,-0.0128,-0.0132,-0.0119,-0.0151,-0.0154,-0.0156,-0.0158,-0.0159,-0.016,0,0,0,0,0,0,0,-0.0068,-0.0067,-0.0067,-0.0079,-0.0079,-0.0062,-0.0062,-0.0085,-0.0089,-0.006,-0.0061,-0.0061,-0.0128,-0.0117,-0.0122,-0.0156,-0.0156,-0.0159,-0.016,-0.0161,-0.0205,-0.0204,0,0,0,0,0,0,-0.0078,-0.0068,-0.0068,-0.0066,-0.0078,-0.0062,-0.0061,-0.0063,-0.0087,-0.0091,-0.0061,-0.0062,-0.0112,-0.0119,-0.0125,-0.0134,-0.0159,-0.0162,-0.0163,-0.0205,-0.0204,-0.0204,0,0,0,0,0,0,-0.0078,-0.0078,-0.0069,-0.0068,-0.0066,-0.0062,-0.0063,-0.0062,-0.0053,-0.0086,-0.0093,-0.0053,-0.0113,-0.0121,-0.0154,-0.0138,-0.0163,-0.0165,-0.0206,-0.0205,-0.0204,-0.0147,0,0,0,0,0,0,-0.0078,-0.0078,-0.0073,-0.0069,-0.0067,-0.0053,-0.0063,-0.0061,-0.0053,-0.0054,-0.0082,-0.0091,-0.0114,-0.015,-0.0157,-0.0142,-0.0168,-0.0206,-0.0205,-0.0204,-0.015,-0.0145,-0.014,0,0,0,0,0,-0.0078,-0.0067,-0.0073,-0.0073,-0.0064,-0.0052,-0.0049,-0.0047,-0.0052,-0.0042,-0.0071,-0.009,-0.0149,-0.0152,-0.016,-0.0146,-0.0207,-0.0205,-0.0204,-0.0152,-0.0146,-0.014,0,0,0,0,0,0,-0.006,-0.0066,-0.0073,-0.0064,-0.006,-0.0054,-0.0043,-0.0043,-0.0052,-0.0061,-0.0092,-0.0103,-0.0123,-0.0144,-0.0147,-0.0155,-0.0177,-0.0178,-0.0134,-0.0129,-0.0124,-0.0113,-0.017,0,0,0,0,0,-0.0055,-0.0052,-0.0056,-0.0048,-0.0048,-0.0045,-0.0038,-0.0039,-0.005,-0.0053,-0.0073,-0.0099,-0.0121,-0.0135,-0.0158,-0.0167,-0.0186,-0.0161,-0.0156,-0.0152,-0.0148,-0.016,-0.0156,-0.02,-0.02,-0.02,0,0,-0.0047,-0.0049,-0.0047,-0.0043,-0.0041,-0.0031,-0.0042,-0.0033,-0.0026,-0.0065,-0.0064,-0.0088,-0.0122,-0.013,-0.014,-0.0148,-0.0149,-0.015,-0.0146,-0.0145,-0.0158,-0.0154,-0.015,-0.02,-0.02,-0.02,0,0,-0.0028,-0.0031,-0.0024,-0.0021,-0.002,-0.0017,-0.0016,-0.0012,-0.0012,-0.002,-0.0043,-0.0057,-0.009,-0.0099,-0.0113,-0.0097,-0.0127,-0.0104,-0.0068,-0.008,-0.0076,-0.0073,-0.0091,-0.009,-0.0098,-0.0097,-0.0097,0,-0.0017,-0.0008,-0.0017,-0.001,0.0,-0.0011,0.0004,0.0004,-0.0002,-0.0002,-0.0019,-0.0044,-0.0071,-0.0075,-0.0068,-0.0085,-0.0103,-0.0086,-0.0073,-0.007,-0.0068,-0.0088,-0.0087,-0.0095,-0.0095,-0.0095,-0.0095,0,0.0,0.0013,0.0019,0.0024,0.0034,0.0046,0.0039,0.0046,0.0041,0.0037,0.003,0.0001,-0.0014,-0.0016,-0.0041,-0.0031,-0.0053,-0.0068,-0.0085,-0.006,-0.0082,-0.0083,-0.009,-0.0091,-0.0092,-0.0093,0,0,0.0011,0.0029,0.0033,0.005,0.0054,0.0069,0.0076,0.0086,0.0098,0.0082,0.0098,0.0068,0.0053,0.0037,0.0016,0.0013,0.0014,-0.0017,-0.0019,-0.0031,-0.0019,-0.0024,-0.0026,-0.0001,-0.0001,-0.0001,-0.004,0,0.003,0.0065,0.0065,0.0104,0.0123,0.012,0.0135,0.0138,0.0133,0.0142,0.0113,0.0112,0.0071,0.0073,0.0059,0.0028,0.0014,0.0025,-0.0045,-0.0047,-0.0051,-0.0026,0.0014,-0.0017,-0.0041,-0.0041,-0.0041,0,0.0043,0.0072,0.0115,0.0157,0.0164,0.0183,0.0216,0.0227,0.0221,0.0215,0.02,0.017,0.0158,0.0124,0.0073,0.008,0.0031,0.0005,0.0003,-0.0022,-0.0053,-0.0046,-0.0018,-0.0095,-0.0043,-0.0043,-0.0042,0,0.0067,0.0107,0.0152,0.0163,0.0202,0.0223,0.0243,0.025,0.0272,0.0264,0.0278,0.0234,0.0232,0.0167,0.0097,0.0083,0.0045,0.0015,-0.0039,-0.0041,-0.003,-0.003,-0.0079,-0.0025,-0.0025,-0.0025,-0.0025,0,0.009,0.0127,0.0168,0.0195,0.0249,0.026,0.0312,0.0316,0.0339,0.0379,0.0319,0.0345,0.0245,0.0204,0.0121,0.0045,0.0054,-0.0027,-0.0046,-0.0009,-0.0008,-0.0095,-0.0129,-0.0027,-0.0026,-0.0026,-0.0026,0,0.0111,0.0136,0.019,0.0243,0.0261,0.0301,0.0363,0.04,0.0411,0.0464,0.0467,0.0434,0.0384,0.0277,0.0185,0.0091,-0.0022,-0.0021,0.0026,0.0013,-0.0118,-0.015,-0.0225,-0.0251,-0.0091,-0.0091,-0.0092,0,0.0125,0.0154,0.0224,0.0259,0.0286,0.0347,0.0391,0.0429,0.0478,0.053,0.0564,0.053,0.0536,0.0386,0.0216,0.0066,-0.0013,-0.0013,-0.0034,-0.0112,-0.0163,-0.0201,-0.022,-0.0001,-0.0001,-0.0,0.0,0,0.0154,0.0177,0.0229,0.0295,0.035,0.0425,0.0495,0.0551,0.0611,0.0679,0.0758,0.0774,0.0619,0.0508,0.0281,0.0157,-0.0046,-0.001,-0.0096,-0.0096,-0.0134,-0.0172,0.0001,0.0004,0.0004,0.0003,0.0003,0.0003,0.0175,0.0214,0.0274,0.0338,0.0408,0.0506,0.0597,0.0694,0.0817,0.0979,0.0945,0.1058,0.083,0.0537,0.0312,-0.0023,-0.0029,-0.0097,-0.0131,-0.0166,-0.0182,-0.0006,-0.0021,-0.0022,-0.0022,-0.0023,-0.0023,0,0.02,0.0249,0.031,0.041,0.05,0.0529,0.0673,0.0807,0.0997,0.1162,0.1283,0.13,0.1019,0.0674,0.0202,-0.0067,-0.0185,-0.0203,-0.0243,-0.0258,-0.0102,-0.0089,-0.0112,-0.0112,-0.0112,-0.0112,-0.0112,-0.0112,0.0222,0.0284,0.0319,0.0471,0.055,0.0716,0.082,0.1035,0.121,0.1505,0.1656,0.1719,0.1493,0.0642,0.0046,-0.0135,-0.0318,-0.037,-0.0454,-0.0342,-0.0335,-0.0328,-0.0326,-0.0399,-0.0399,-0.058,-0.0582,-0.0583]}],[{"header":{"parameterUnit":"m.s-1","parameterCategory":2,"la1":30.2991,"la2":30.254,"lo1":-89.0895,"lo2":-89.0444,"dy":0.0017,"dx":0.0017,"nx":28,"ny":28,"refTime":"2024-06-28T09:00:00:Z","depth":"2","parameterNumber":2,"parameterNumberName":"U-component_of_CURRENTS"},"data":[0,0,0,0,0,0,0,0,0,0,0,0,0,0,0,0,0,0,0,0,0,0,0,0,0,0,0,0,0,0,0,0,0,0,0,0,0,0,0,0,0,0,0,0,0,0,0,0,0,0,0,0,0,0,0,0,0,0,-0.0907,-0.0907,0,-0.0865,-0.0865,-0.0865,-0.082,-0.0819,-0.0818,-0.0817,-0.0802,-0.0803,-0.0803,0,0,0,0,0,0,0,0,0,0,0,0,0,-0.1082,-0.1079,-0.0907,-0.0906,-0.0905,-0.0865,-0.0865,-0.0865,-0.0821,-0.0819,-0.0818,-0.0817,-0.0802,-0.0803,-0.0803,0,0,0,0,0,0,0,0,0,0,0,0,0,-0.1024,-0.1077,-0.0908,-0.0875,-0.0871,-0.0865,-0.0865,-0.0865,-0.0821,-0.0819,-0.0818,-0.0816,-0.0802,-0.0803,-0.0804,-0.0841,0,0,-0.0806,-0.0807,0,0,0,0,0,0,0,0,-0.1027,-0.1018,-0.0881,-0.0877,-0.0873,-0.0842,-0.0921,-0.0857,-0.0821,-0.0845,-0.0817,-0.0815,-0.0816,-0.0816,-0.0818,-0.084,-0.084,-0.0806,-0.0807,-0.0807,-0.0808,0,0,0,0,0,0,0,-0.1031,-0.102,-0.0896,-0.088,-0.0875,-0.0907,-0.0897,-0.0909,-0.0844,-0.0843,-0.0838,-0.0826,-0.0815,-0.0817,-0.0817,-0.0839,-0.0806,-0.0807,-0.0808,-0.0808,-0.0788,-0.0787,0,0,0,0,0,0,-0.1021,-0.1023,-0.0897,-0.0894,-0.0942,-0.0905,-0.0893,-0.0858,-0.0843,-0.0838,-0.0828,-0.0824,-0.0816,-0.0816,-0.0816,-0.0726,-0.0807,-0.0808,-0.0809,-0.0789,-0.0788,-0.0787,0,0,0,0,0,0,-0.1024,-0.1009,-0.0898,-0.0956,-0.0943,-0.0902,-0.0864,-0.0857,-0.0814,-0.0831,-0.0827,-0.0784,-0.0815,-0.0815,-0.0786,-0.073,-0.0809,-0.0809,-0.079,-0.0789,-0.0787,-0.0632,0,0,0,0,0,0,-0.1029,-0.101,-0.0963,-0.0954,-0.0939,-0.0863,-0.0864,-0.0858,-0.0809,-0.0803,-0.0793,-0.0793,-0.0814,-0.0785,-0.0787,-0.0733,-0.081,-0.0792,-0.079,-0.0788,-0.0638,-0.0625,-0.0614,0,0,0,0,0,-0.1035,-0.0969,-0.0961,-0.0945,-0.0881,-0.0861,-0.0857,-0.0828,-0.0808,-0.0784,-0.0772,-0.079,-0.0774,-0.0784,-0.0787,-0.0732,-0.0793,-0.079,-0.0788,-0.0644,-0.0628,-0.0614,0,0,0,0,0,0,-0.1008,-0.0958,-0.0948,-0.0866,-0.0854,-0.0851,-0.0807,-0.0803,-0.0776,-0.0749,-0.0776,-0.0775,-0.0732,-0.0764,-0.0774,-0.0726,-0.0787,-0.0786,-0.0677,-0.0662,-0.065,-0.0628,-0.0811,0,0,0,0,0,-0.0985,-0.0925,-0.0906,-0.084,-0.0822,-0.0813,-0.0791,-0.0775,-0.0759,-0.0742,-0.0733,-0.0731,-0.0735,-0.0719,-0.0732,-0.0701,-0.0695,-0.0673,-0.066,-0.0649,-0.0637,-0.0605,-0.0587,-0.0779,-0.0779,-0.0779,0,0,-0.0955,-0.092,-0.0883,-0.0831,-0.0811,-0.0788,-0.0794,-0.0739,-0.0716,-0.0747,-0.0684,-0.0686,-0.0721,-0.0683,-0.0667,-0.0691,-0.0579,-0.0646,-0.0636,-0.063,-0.0601,-0.0582,-0.0565,-0.0777,-0.0778,-0.0778,0,0,-0.0897,-0.0834,-0.0782,-0.0764,-0.0722,-0.0724,-0.07,-0.0669,-0.0641,-0.0604,-0.0615,-0.058,-0.0582,-0.0584,-0.0595,-0.0529,-0.0522,-0.0524,-0.0429,-0.0397,-0.038,-0.0366,-0.027,-0.0249,-0.0509,-0.0509,-0.0509,0,-0.0869,-0.0791,-0.0767,-0.0728,-0.0695,-0.0692,-0.0647,-0.0636,-0.0599,-0.0559,-0.0563,-0.0518,-0.0543,-0.0499,-0.0469,-0.0497,-0.0452,-0.0474,-0.0377,-0.0363,-0.035,-0.0257,-0.0235,-0.0501,-0.0502,-0.0503,-0.0504,0,-0.0804,-0.0728,-0.069,-0.0643,-0.0618,-0.0563,-0.0556,-0.0508,-0.0474,-0.0457,-0.0378,-0.0394,-0.0355,-0.0363,-0.0395,-0.0309,-0.0291,-0.0366,-0.0403,-0.0321,-0.0228,-0.0208,-0.049,-0.0493,-0.0495,-0.0497,0,0,-0.0744,-0.0664,-0.064,-0.0592,-0.0552,-0.0519,-0.0474,-0.0421,-0.0352,-0.0318,-0.0223,-0.0225,-0.0184,-0.0195,-0.0207,-0.0185,-0.0046,-0.0213,-0.0215,-0.0096,0.0103,0.0118,0.0141,-0.0084,-0.0082,-0.0079,0.0157,0,-0.0689,-0.0593,-0.0579,-0.048,-0.0412,-0.04,-0.0361,-0.0312,-0.0263,-0.0173,-0.0159,-0.0072,-0.0137,-0.0062,-0.0056,-0.0059,0.0006,-0.0098,-0.0015,-0.0012,0.0008,0.0162,0.0046,0.0246,0.0177,0.018,0.0182,0,-0.0609,-0.0545,-0.0434,-0.0349,-0.0321,-0.0277,-0.0166,-0.0132,-0.0047,0.001,0.0096,0.0122,0.0202,0.012,0.0192,0.0144,0.0157,0.0138,0.0145,0.0112,0.0038,0.0136,0.0284,0.0216,0.0213,0.0211,0.0208,0,-0.0524,-0.0433,-0.0328,-0.0295,-0.0217,-0.0151,-0.0118,-0.0038,0.0026,0.0177,0.0273,0.0336,0.0432,0.0415,0.0403,0.0333,0.047,0.0355,0.0391,0.0394,0.0284,0.0272,0.0426,0.0425,0.0425,0.0424,0.0423,0,-0.0433,-0.0349,-0.0262,-0.0188,-0.0071,-0.0043,0.0089,0.0137,0.024,0.0355,0.0409,0.0523,0.0513,0.0576,0.051,0.0552,0.0575,0.0465,0.0463,0.034,0.0331,0.0256,0.0233,0.0433,0.0431,0.0429,0.0428,0,-0.0344,-0.0286,-0.0153,-0.0041,-0.0008,0.0095,0.0187,0.0268,0.0384,0.0544,0.0624,0.073,0.0837,0.0813,0.083,0.074,0.0732,0.0738,0.0638,0.0618,0.0617,0.0599,0.0823,0.0826,0.0828,0.083,0.0832,0,-0.0306,-0.0213,-0.0047,0.0029,0.0091,0.0215,0.0277,0.0359,0.0448,0.0657,0.0741,0.0924,0.1012,0.107,0.0985,0.0964,0.0884,0.0833,0.0638,0.0687,0.0661,0.064,0.0619,0.0588,0.0587,0.0587,0.0586,0,-0.0233,-0.0145,-0.0033,0.0114,0.0221,0.0315,0.0423,0.0497,0.0623,0.0768,0.0953,0.1046,0.1147,0.1074,0.1063,0.0984,0.0814,0.0825,0.093,0.0486,0.0477,0.0447,0.0433,0.0582,0.0583,0.0583,0.0583,0.0583,-0.0191,-0.0091,0.0056,0.0193,0.0307,0.041,0.0491,0.0596,0.0738,0.0925,0.1007,0.109,0.0998,0.0931,0.0899,0.0878,0.089,0.0736,0.0732,0.073,0.0641,0.0634,0.0758,0.0759,0.0761,0.0762,0.0762,0,-0.0173,-0.0044,0.0085,0.0263,0.0371,0.0446,0.0575,0.0642,0.0811,0.0911,0.1051,0.0859,0.0804,0.0765,0.0738,0.0707,0.0642,0.0646,0.0519,0.0524,0.0527,0.0422,0.0485,0.0485,0.0484,0.0484,0,0,-0.0147,-0.0027,0.0056,0.0265,0.0412,0.0587,0.0681,0.076,0.0817,0.0856,0.0858,0.0822,0.0747,0.0593,0.0547,0.0555,0.0547,0.053,0.0744,0.0603,0.0608,0.0563,0.0405,0,0,0,0,0]},{"header":{"parameterUnit":"m.s-1","parameterCategory":2,"la1":30.2991,"la2":30.254,"lo1":-89.0895,"lo2":-89.0444,"dy":0.0017,"dx":0.0017,"nx":28,"ny":28,"refTime":"2024-06-28T09:00:00:Z","depth":"2","parameterNumber":3,"parameterNumberName":"V-component_of_CURRENTS"},"data":[0,0,0,0,0,0,0,0,0,0,0,0,0,0,0,0,0,0,0,0,0,0,0,0,0,0,0,0,0,0,0,0,0,0,0,0,0,0,0,0,0,0,0,0,0,0,0,0,0,0,0,0,0,0,0,0,0,0,-0.0212,-0.0213,0,-0.0249,-0.0249,-0.0249,-0.0323,-0.0325,-0.0327,-0.0329,-0.035,-0.0349,-0.0348,0,0,0,0,0,0,0,0,0,0,0,0,0,-0.0185,-0.0184,-0.0212,-0.0213,-0.0214,-0.0249,-0.0249,-0.0249,-0.0323,-0.0325,-0.0328,-0.033,-0.0351,-0.0349,-0.0348,0,0,0,0,0,0,0,0,0,0,0,0,0,-0.0201,-0.0184,-0.0212,-0.0259,-0.0264,-0.0249,-0.0249,-0.0249,-0.0322,-0.0325,-0.0328,-0.0331,-0.0351,-0.0349,-0.0347,-0.0275,0,0,-0.0342,-0.0341,0,0,0,0,0,0,0,0,-0.02,-0.0201,-0.0251,-0.0256,-0.0262,-0.029,-0.0248,-0.0259,-0.0321,-0.0294,-0.0329,-0.0333,-0.033,-0.033,-0.0322,-0.0276,-0.0277,-0.0341,-0.034,-0.0339,-0.0339,0,0,0,0,0,0,0,-0.0199,-0.02,-0.0221,-0.0252,-0.0259,-0.0272,-0.0278,-0.025,-0.029,-0.0297,-0.0304,-0.0316,-0.0333,-0.0324,-0.0323,-0.0278,-0.0341,-0.034,-0.0339,-0.0338,-0.0297,-0.0297,0,0,0,0,0,0,-0.0203,-0.0198,-0.022,-0.0222,-0.0244,-0.0271,-0.0276,-0.0273,-0.0291,-0.0298,-0.0314,-0.032,-0.0326,-0.0326,-0.0325,-0.035,-0.0339,-0.0338,-0.0336,-0.0296,-0.0297,-0.0297,0,0,0,0,0,0,-0.0202,-0.0204,-0.0218,-0.0217,-0.0221,-0.0269,-0.0264,-0.0272,-0.0305,-0.0305,-0.0312,-0.0344,-0.0328,-0.0327,-0.0344,-0.0348,-0.0337,-0.0335,-0.0296,-0.0297,-0.0297,-0.0331,0,0,0,0,0,0,-0.0201,-0.0203,-0.021,-0.0217,-0.0222,-0.0226,-0.0262,-0.0271,-0.0308,-0.0317,-0.0331,-0.0335,-0.033,-0.0348,-0.0343,-0.0345,-0.0333,-0.0296,-0.0296,-0.0297,-0.033,-0.0332,-0.0334,0,0,0,0,0,-0.0199,-0.0192,-0.021,-0.0214,-0.0227,-0.0227,-0.0229,-0.027,-0.0307,-0.0312,-0.0341,-0.0336,-0.0345,-0.0346,-0.034,-0.0342,-0.0296,-0.0296,-0.0297,-0.0329,-0.0332,-0.0334,0,0,0,0,0,0,-0.0177,-0.02,-0.0219,-0.0219,-0.0233,-0.0242,-0.0255,-0.0282,-0.0305,-0.0323,-0.0335,-0.0339,-0.0356,-0.0339,-0.034,-0.033,-0.0319,-0.0318,-0.0345,-0.0348,-0.035,-0.0333,-0.0332,0,0,0,0,0,-0.0175,-0.0184,-0.0201,-0.0203,-0.0212,-0.0238,-0.025,-0.0271,-0.0291,-0.0306,-0.0331,-0.0342,-0.0339,-0.0342,-0.0337,-0.0321,-0.0314,-0.0319,-0.0321,-0.0323,-0.0305,-0.0321,-0.0323,-0.0297,-0.0297,-0.0297,0,0,-0.0164,-0.0183,-0.0186,-0.0201,-0.0216,-0.0219,-0.0252,-0.0267,-0.0281,-0.0299,-0.034,-0.0353,-0.034,-0.0341,-0.0345,-0.0334,-0.0327,-0.0323,-0.0326,-0.0306,-0.0321,-0.0324,-0.0326,-0.0297,-0.0297,-0.0297,0,0,-0.0138,-0.0165,-0.0161,-0.0178,-0.0208,-0.0218,-0.0231,-0.026,-0.029,-0.0314,-0.0338,-0.0357,-0.0362,-0.0354,-0.0346,-0.0348,-0.0346,-0.0354,-0.0344,-0.036,-0.0363,-0.0364,-0.0364,-0.0365,-0.0348,-0.0348,-0.0348,0,-0.0128,-0.0128,-0.0159,-0.0165,-0.018,-0.0223,-0.0217,-0.024,-0.028,-0.0292,-0.0336,-0.0354,-0.036,-0.0338,-0.0354,-0.0352,-0.0362,-0.0339,-0.0364,-0.0366,-0.0367,-0.0366,-0.0367,-0.035,-0.035,-0.035,-0.035,0,-0.0101,-0.011,-0.0111,-0.0136,-0.0149,-0.0153,-0.0188,-0.0219,-0.0271,-0.0291,-0.0318,-0.0339,-0.0344,-0.0355,-0.0359,-0.0361,-0.0365,-0.0375,-0.036,-0.0372,-0.037,-0.0371,-0.0352,-0.0352,-0.0351,-0.0351,0,0,-0.0071,-0.0083,-0.0094,-0.0094,-0.0137,-0.0136,-0.0165,-0.0182,-0.0193,-0.0257,-0.0266,-0.0294,-0.032,-0.0312,-0.0325,-0.0343,-0.0377,-0.0369,-0.037,-0.0372,-0.0412,-0.0409,-0.0409,-0.0408,-0.0409,-0.0409,-0.0409,0,-0.0049,-0.0036,-0.0055,-0.0052,-0.0049,-0.0093,-0.0107,-0.0133,-0.0175,-0.02,-0.0233,-0.0247,-0.0297,-0.0305,-0.0336,-0.037,-0.038,-0.0375,-0.0395,-0.0394,-0.0394,-0.041,-0.0398,-0.0397,-0.0409,-0.0409,-0.0409,0,-0.0046,-0.0033,-0.0016,-0.0005,-0.0007,-0.0013,-0.0039,-0.0052,-0.0089,-0.0117,-0.015,-0.0187,-0.0221,-0.0264,-0.0331,-0.0337,-0.037,-0.0397,-0.0398,-0.0378,-0.0392,-0.0384,-0.0397,-0.041,-0.041,-0.041,-0.041,0,-0.004,-0.0019,-0.0001,-0.0006,0.0002,-0.0001,-0.0003,-0.0035,-0.0029,-0.0067,-0.0065,-0.0128,-0.0151,-0.0225,-0.0318,-0.033,-0.0389,-0.0404,-0.0417,-0.0417,-0.0395,-0.0393,-0.0425,-0.0425,-0.0425,-0.0425,-0.0425,0,-0.0035,-0.0027,0.0004,0.0006,0.0039,0.0027,0.005,0.0031,0.0031,0.0062,-0.002,-0.0013,-0.0149,-0.021,-0.0295,-0.0371,-0.0375,-0.0408,-0.0418,-0.0407,-0.0406,-0.0405,-0.0403,-0.0425,-0.0425,-0.0425,-0.0425,0,-0.005,-0.0037,-0.0015,0.0017,0.0033,0.0043,0.0094,0.0121,0.0106,0.014,0.0133,0.0065,-0.003,-0.0153,-0.0262,-0.0322,-0.0399,-0.0411,-0.0385,-0.0392,-0.0415,-0.0414,-0.0419,-0.0419,-0.0419,-0.0419,-0.0419,0,-0.005,-0.0039,-0.0007,0.0022,0.0036,0.0075,0.0116,0.0137,0.0179,0.0197,0.0224,0.0144,0.01,-0.0073,-0.0213,-0.0346,-0.0382,-0.0395,-0.0404,-0.0405,-0.0415,-0.0415,-0.0414,-0.039,-0.039,-0.039,-0.0389,0,-0.0035,-0.0044,-0.0012,0.0038,0.008,0.0164,0.0227,0.0274,0.0312,0.0346,0.0376,0.034,0.0171,0.0007,-0.0188,-0.0269,-0.0386,-0.0391,-0.0406,-0.0394,-0.0378,-0.0388,-0.0388,-0.0387,-0.0387,-0.0388,-0.0388,-0.0388,-0.0021,-0.0009,0.002,0.0077,0.0141,0.0245,0.0331,0.0412,0.0494,0.056,0.0498,0.0431,0.0211,-0.0054,-0.0193,-0.0332,-0.033,-0.039,-0.039,-0.0391,-0.0389,-0.0374,-0.0381,-0.0381,-0.0381,-0.0381,-0.0381,0,0.0017,0.0027,0.0076,0.0152,0.0245,0.0271,0.0415,0.0509,0.0628,0.0616,0.0633,0.0385,0.0203,-0.0035,-0.0223,-0.033,-0.0334,-0.038,-0.0377,-0.0378,-0.038,-0.0377,-0.0366,-0.0366,-0.0366,-0.0366,0,0,0.0037,0.0074,0.0095,0.0233,0.0306,0.046,0.0556,0.0675,0.07,0.0688,0.0602,0.0492,0.0181,0.0026,-0.0145,-0.0249,-0.0273,-0.0259,-0.026,-0.0236,-0.0235,-0.0378,-0.0374,0,0,0,0,0]}],[{"header":{"parameterUnit":"m.s-1","parameterCategory":2,"la1":30.2991,"la2":30.254,"lo1":-89.0895,"lo2":-89.0444,"dy":0.0017,"dx":0.0017,"nx":28,"ny":28,"refTime":"2024-06-28T09:00:00:Z","depth":"4","parameterNumber":2,"parameterNumberName":"U-component_of_CURRENTS"},"data":[0,0,0,0,0,0,0,0,0,0,0,0,0,0,0,0,0,0,0,0,0,0,0,0,0,0,0,0,0,0,0,0,0,0,0,0,0,0,0,0,0,0,0,0,0,0,0,0,0,0,0,0,0,0,0,0,0,0,-0.0184,-0.0184,0,-0.0187,-0.0187,-0.0186,-0.0195,-0.0195,-0.0196,-0.0196,-0.0293,-0.0295,-0.0297,0,0,0,0,0,0,0,0,0,0,0,0,0,-0.0204,-0.0204,-0.0184,-0.0184,-0.0185,-0.0187,-0.0186,-0.0186,-0.0195,-0.0195,-0.0196,-0.0197,-0.0293,-0.0295,-0.0298,0,0,0,0,0,0,0,0,0,0,0,0,0,-0.0197,-0.0203,-0.0184,-0.0192,-0.0193,-0.0187,-0.0186,-0.0186,-0.0194,-0.0195,-0.0196,-0.0197,-0.0292,-0.0295,-0.0298,-0.0301,0,0,-0.0307,-0.0309,0,0,0,0,0,0,0,0,-0.0197,-0.0195,-0.019,-0.0191,-0.0193,-0.0195,-0.023,-0.0231,-0.0194,-0.019,-0.0196,-0.0197,-0.0271,-0.0276,-0.0268,-0.0306,-0.031,-0.0308,-0.031,-0.0311,-0.0312,0,0,0,0,0,0,0,-0.0197,-0.0195,-0.0181,-0.0191,-0.0192,-0.0202,-0.0201,-0.0229,-0.0225,-0.019,-0.0192,-0.0198,-0.0272,-0.0265,-0.027,-0.0311,-0.0308,-0.031,-0.0312,-0.0314,-0.0437,-0.0438,0,0,0,0,0,0,-0.0203,-0.0196,-0.0181,-0.0182,-0.0201,-0.0201,-0.02,-0.019,-0.0222,-0.0228,-0.0197,-0.0198,-0.0259,-0.0267,-0.0274,-0.0368,-0.0311,-0.0314,-0.0316,-0.0435,-0.0437,-0.0438,0,0,0,0,0,0,-0.0203,-0.0201,-0.0181,-0.0193,-0.0192,-0.02,-0.0189,-0.019,-0.0196,-0.0227,-0.0235,-0.0205,-0.026,-0.027,-0.0315,-0.0369,-0.0315,-0.0318,-0.0434,-0.0436,-0.0438,-0.05,0,0,0,0,0,0,-0.0203,-0.02,-0.0195,-0.0193,-0.0191,-0.018,-0.0188,-0.0189,-0.0199,-0.0201,-0.0236,-0.0245,-0.0261,-0.031,-0.0318,-0.0372,-0.0321,-0.0432,-0.0435,-0.0437,-0.0496,-0.0504,-0.0511,0,0,0,0,0,-0.0203,-0.0191,-0.0194,-0.0193,-0.0183,-0.0181,-0.018,-0.0187,-0.0199,-0.0196,-0.0231,-0.0244,-0.0333,-0.0313,-0.0322,-0.0379,-0.0431,-0.0434,-0.0437,-0.0493,-0.0503,-0.0511,0,0,0,0,0,0,-0.0199,-0.0191,-0.0194,-0.018,-0.0184,-0.0184,-0.0185,-0.0192,-0.0213,-0.0226,-0.0254,-0.0265,-0.0328,-0.0336,-0.0313,-0.042,-0.0387,-0.0392,-0.0427,-0.0436,-0.0443,-0.0412,-0.0323,0,0,0,0,0,-0.0195,-0.0184,-0.0183,-0.0176,-0.0177,-0.0183,-0.0185,-0.0193,-0.0212,-0.022,-0.0257,-0.0299,-0.0344,-0.0374,-0.0406,-0.0459,-0.0426,-0.0502,-0.0509,-0.0515,-0.0495,-0.0521,-0.0529,-0.0449,-0.0449,-0.0449,0,0,-0.0195,-0.0189,-0.0185,-0.0175,-0.0178,-0.0175,-0.0185,-0.0193,-0.0206,-0.0231,-0.0276,-0.0323,-0.0361,-0.0425,-0.0455,-0.0443,-0.0513,-0.0519,-0.0525,-0.05,-0.0525,-0.0533,-0.054,-0.0451,-0.045,-0.045,0,0,-0.0188,-0.0181,-0.017,-0.0169,-0.0176,-0.0179,-0.0185,-0.0202,-0.0224,-0.0268,-0.0302,-0.0365,-0.0434,-0.0472,-0.0499,-0.0558,-0.0547,-0.0596,-0.0618,-0.0645,-0.0651,-0.0656,-0.0584,-0.0583,-0.0606,-0.0606,-0.0606,0,-0.0191,-0.0172,-0.017,-0.016,-0.0164,-0.0182,-0.0179,-0.0197,-0.0236,-0.0261,-0.029,-0.0399,-0.0447,-0.0512,-0.0558,-0.0575,-0.0562,-0.0586,-0.0653,-0.0658,-0.0663,-0.0588,-0.0585,-0.061,-0.0609,-0.0609,-0.0609,0,-0.0172,-0.0164,-0.016,-0.0151,-0.0153,-0.0156,-0.0179,-0.0203,-0.0248,-0.0278,-0.036,-0.0428,-0.0495,-0.0542,-0.0582,-0.0655,-0.0622,-0.0656,-0.0629,-0.0674,-0.0592,-0.0588,-0.0614,-0.0613,-0.0612,-0.0611,0,0,-0.0162,-0.0149,-0.0146,-0.0146,-0.015,-0.0151,-0.0175,-0.02,-0.0224,-0.0298,-0.0342,-0.0458,-0.0514,-0.0548,-0.0615,-0.0657,-0.0691,-0.0693,-0.0693,-0.0613,-0.0692,-0.0566,-0.0549,-0.0765,-0.0766,-0.0767,-0.0606,0,-0.0152,-0.0131,-0.0129,-0.0126,-0.0122,-0.014,-0.0161,-0.0192,-0.024,-0.0292,-0.0372,-0.0457,-0.0512,-0.0589,-0.0634,-0.0694,-0.0693,-0.0726,-0.0665,-0.066,-0.054,-0.0545,-0.077,-0.0603,-0.0602,-0.0602,-0.0601,0,-0.0131,-0.0122,-0.0112,-0.0119,-0.012,-0.0131,-0.016,-0.019,-0.0251,-0.0304,-0.038,-0.0444,-0.0534,-0.0587,-0.0635,-0.0668,-0.0679,-0.0695,-0.069,-0.0545,-0.0529,-0.0559,-0.0594,-0.0594,-0.0595,-0.0595,-0.0596,0,-0.012,-0.0111,-0.0106,-0.0105,-0.0114,-0.0132,-0.0161,-0.0205,-0.0234,-0.0339,-0.0368,-0.0456,-0.052,-0.0566,-0.0577,-0.0651,-0.0567,-0.0667,-0.0517,-0.0504,-0.0638,-0.0634,-0.0662,-0.0662,-0.0662,-0.0663,-0.0663,0,-0.0105,-0.01,-0.0109,-0.0104,-0.0115,-0.0145,-0.0177,-0.0217,-0.0277,-0.0292,-0.0402,-0.0395,-0.0537,-0.0497,-0.0531,-0.0455,-0.0515,-0.0486,-0.0467,-0.066,-0.0662,-0.0631,-0.063,-0.0656,-0.0658,-0.0659,-0.066,0,-0.0094,-0.009,-0.0087,-0.0103,-0.0109,-0.0136,-0.0181,-0.02,-0.0274,-0.0293,-0.0337,-0.0371,-0.0348,-0.0352,-0.0378,-0.0367,-0.0329,-0.027,-0.0358,-0.035,-0.0263,-0.0267,-0.0153,-0.0147,-0.0143,-0.0139,-0.0135,0,-0.0085,-0.0081,-0.0084,-0.0079,-0.0093,-0.013,-0.0143,-0.0211,-0.0224,-0.0229,-0.022,-0.0206,-0.0216,-0.0088,-0.0136,-0.0098,-0.0117,-0.0065,-0.0293,-0.0224,-0.0217,-0.0228,-0.0238,-0.0128,-0.0127,-0.0125,-0.0124,0,-0.007,-0.0074,-0.0069,-0.0065,-0.0075,-0.0075,-0.0105,-0.0107,-0.0157,-0.0191,-0.0118,-0.0093,-0.0015,-0.0021,0.0055,0.0062,-0.0113,-0.0019,-0.0034,-0.0249,-0.0193,-0.0193,-0.0208,-0.0108,-0.011,-0.0112,-0.0113,0,-0.0063,-0.0057,-0.005,-0.0052,-0.0041,-0.0024,-0.0049,-0.004,-0.0056,-0.0075,-0.0006,0.0025,0.0024,0.0079,0.0161,0.0175,0.0086,0.003,0.001,-0.0008,-0.0042,0.0045,0.0246,0,0,0,0,0,-0.0051,-0.0038,-0.0031,-0.0015,-0.0002,0.0001,-0.0006,-0.0031,-0.0047,0.001,-0.0018,0.006,0.0124,0.0165,0.0191,0.0195,0.0084,0.0227,0.0007,-0.0018,-0.0037,-0.0095,0,0,0,0,0,0,-0.0037,-0.0025,-0.0024,0.0015,0.0034,0.0051,0.0047,0.0032,0.0053,0.0043,0.0079,0.008,0.014,0.011,0.0199,0.0206,0.0073,0.0248,0.0249,-0.0008,-0.0025,-0.004,-0.0106,0,0,0,0,0]},{"header":{"parameterUnit":"m.s-1","parameterCategory":2,"la1":30.2991,"la2":30.254,"lo1":-89.0895,"lo2":-89.0444,"dy":0.0017,"dx":0.0017,"nx":28,"ny":28,"refTime":"2024-06-28T09:00:00:Z","depth":"4","parameterNumber":3,"parameterNumberName":"V-component_of_CURRENTS"},"data":[0,0,0,0,0,0,0,0,0,0,0,0,0,0,0,0,0,0,0,0,0,0,0,0,0,0,0,0,0,0,0,0,0,0,0,0,0,0,0,0,0,0,0,0,0,0,0,0,0,0,0,0,0,0,0,0,0,0,-0.0283,-0.0283,0,-0.0333,-0.0334,-0.0334,-0.0361,-0.0361,-0.036,-0.036,-0.042,-0.0422,-0.0423,0,0,0,0,0,0,0,0,0,0,0,0,0,-0.0204,-0.0205,-0.0283,-0.0283,-0.0284,-0.0333,-0.0334,-0.0335,-0.0361,-0.0361,-0.036,-0.036,-0.0419,-0.0421,-0.0423,0,0,0,0,0,0,0,0,0,0,0,0,0,-0.0245,-0.0206,-0.0283,-0.0302,-0.0304,-0.0333,-0.0334,-0.0335,-0.0361,-0.0361,-0.036,-0.036,-0.0419,-0.0421,-0.0424,-0.0441,0,0,-0.0431,-0.0432,0,0,0,0,0,0,0,0,-0.0243,-0.0249,-0.0299,-0.0301,-0.0303,-0.0339,-0.0328,-0.037,-0.0361,-0.034,-0.036,-0.036,-0.0393,-0.0398,-0.0409,-0.0444,-0.0446,-0.0431,-0.0433,-0.0434,-0.0435,0,0,0,0,0,0,0,-0.024,-0.0246,-0.0304,-0.0299,-0.0302,-0.0306,-0.0312,-0.0336,-0.0368,-0.0342,-0.0344,-0.0348,-0.0395,-0.0407,-0.0411,-0.0447,-0.0431,-0.0434,-0.0435,-0.0436,-0.0525,-0.0526,0,0,0,0,0,0,-0.0232,-0.0244,-0.0302,-0.0305,-0.0271,-0.0307,-0.0314,-0.0329,-0.0368,-0.0373,-0.0348,-0.0349,-0.0402,-0.0408,-0.0413,-0.0461,-0.0434,-0.0436,-0.0438,-0.0524,-0.0525,-0.0526,0,0,0,0,0,0,-0.0231,-0.0237,-0.03,-0.0274,-0.0282,-0.0309,-0.0325,-0.033,-0.0358,-0.0371,-0.0377,-0.0372,-0.0403,-0.0409,-0.0459,-0.0462,-0.0437,-0.044,-0.0523,-0.0525,-0.0526,-0.0541,0,0,0,0,0,0,-0.0228,-0.0237,-0.0251,-0.0274,-0.0283,-0.0325,-0.0325,-0.0331,-0.0358,-0.0361,-0.0394,-0.0398,-0.0403,-0.0455,-0.0461,-0.0465,-0.0442,-0.0522,-0.0524,-0.0525,-0.0539,-0.0543,-0.0546,0,0,0,0,0,-0.0225,-0.0247,-0.0252,-0.0259,-0.03,-0.0326,-0.0332,-0.035,-0.036,-0.0375,-0.0407,-0.0398,-0.0469,-0.0459,-0.0465,-0.047,-0.0521,-0.0523,-0.0525,-0.0538,-0.0542,-0.0545,0,0,0,0,0,0,-0.0227,-0.0252,-0.0258,-0.0288,-0.0307,-0.033,-0.0348,-0.0362,-0.0399,-0.041,-0.0423,-0.043,-0.0477,-0.0475,-0.0464,-0.0501,-0.0488,-0.0492,-0.0495,-0.0499,-0.0502,-0.0498,-0.0444,0,0,0,0,0,-0.0231,-0.0253,-0.0273,-0.03,-0.0308,-0.0332,-0.0347,-0.0363,-0.0394,-0.0411,-0.0439,-0.0463,-0.0487,-0.0496,-0.0526,-0.0548,-0.0537,-0.0552,-0.0555,-0.0557,-0.0559,-0.0546,-0.0548,-0.0533,-0.0533,-0.0533,0,0,-0.0241,-0.0257,-0.0271,-0.0301,-0.0318,-0.034,-0.0342,-0.0375,-0.0402,-0.0412,-0.047,-0.049,-0.0503,-0.0534,-0.055,-0.0531,-0.0558,-0.056,-0.0562,-0.0562,-0.0548,-0.0549,-0.055,-0.0534,-0.0534,-0.0534,0,0,-0.0264,-0.0284,-0.0305,-0.0319,-0.0346,-0.0361,-0.0373,-0.041,-0.0435,-0.0486,-0.05,-0.0533,-0.0568,-0.0577,-0.0583,-0.0622,-0.0588,-0.0615,-0.0611,-0.0599,-0.0599,-0.06,-0.0592,-0.0591,-0.0598,-0.0598,-0.0598,0,-0.0272,-0.03,-0.0315,-0.0334,-0.035,-0.0371,-0.0396,-0.0424,-0.0478,-0.0503,-0.0509,-0.0574,-0.0591,-0.0613,-0.0618,-0.063,-0.0607,-0.0594,-0.0601,-0.0601,-0.0601,-0.0593,-0.0592,-0.0599,-0.0599,-0.0599,-0.0599,0,-0.0302,-0.0325,-0.0339,-0.0368,-0.0391,-0.0417,-0.0447,-0.0484,-0.0516,-0.0543,-0.0596,-0.0621,-0.0647,-0.0651,-0.0643,-0.0647,-0.0627,-0.0618,-0.0587,-0.0603,-0.0594,-0.0593,-0.0601,-0.06,-0.06,-0.06,0,0,-0.0312,-0.0351,-0.0356,-0.0371,-0.041,-0.0432,-0.0479,-0.0522,-0.0554,-0.06,-0.0639,-0.0673,-0.0677,-0.0683,-0.0676,-0.0657,-0.0644,-0.0622,-0.0621,-0.0606,-0.0603,-0.0567,-0.0562,-0.0616,-0.0616,-0.0616,-0.0597,0,-0.0327,-0.036,-0.0384,-0.0425,-0.0441,-0.0474,-0.0514,-0.0559,-0.0598,-0.0644,-0.0666,-0.0703,-0.0688,-0.0691,-0.0674,-0.0658,-0.064,-0.065,-0.0597,-0.0596,-0.0555,-0.056,-0.0616,-0.0597,-0.0596,-0.0596,-0.0596,0,-0.0341,-0.0359,-0.0399,-0.0444,-0.0457,-0.0498,-0.0556,-0.0597,-0.0655,-0.0681,-0.0708,-0.0718,-0.072,-0.0702,-0.067,-0.0664,-0.0633,-0.0616,-0.0615,-0.0574,-0.0557,-0.0577,-0.0594,-0.0594,-0.0594,-0.0594,-0.0594,0,-0.0325,-0.0371,-0.0403,-0.0417,-0.0473,-0.0514,-0.0559,-0.062,-0.0648,-0.0705,-0.0713,-0.073,-0.0725,-0.0698,-0.0653,-0.0649,-0.0609,-0.0608,-0.0554,-0.0552,-0.0583,-0.0582,-0.0585,-0.0585,-0.0585,-0.0585,-0.0585,0,-0.0324,-0.0348,-0.0406,-0.042,-0.0472,-0.0522,-0.0585,-0.0627,-0.0678,-0.069,-0.0728,-0.0706,-0.0712,-0.0683,-0.0656,-0.0595,-0.061,-0.0556,-0.0542,-0.0591,-0.0592,-0.0582,-0.0582,-0.0584,-0.0584,-0.0584,-0.0585,0,-0.0306,-0.0338,-0.0372,-0.0437,-0.0467,-0.0512,-0.0594,-0.0623,-0.0671,-0.0684,-0.069,-0.0682,-0.0635,-0.0643,-0.06,-0.0584,-0.0548,-0.0523,-0.0579,-0.0569,-0.0503,-0.0504,-0.0472,-0.047,-0.0469,-0.0468,-0.0467,0,-0.0302,-0.0316,-0.0379,-0.0405,-0.0447,-0.0517,-0.0556,-0.0621,-0.0627,-0.0636,-0.0615,-0.0594,-0.058,-0.0505,-0.0515,-0.05,-0.0488,-0.0488,-0.0497,-0.05,-0.049,-0.0493,-0.0496,-0.0465,-0.0465,-0.0465,-0.0464,0,-0.0285,-0.031,-0.0336,-0.0381,-0.0433,-0.0479,-0.0531,-0.0519,-0.0558,-0.0594,-0.0519,-0.0505,-0.0462,-0.0444,-0.0447,-0.0427,-0.0505,-0.0475,-0.0478,-0.0486,-0.0491,-0.0484,-0.0488,-0.046,-0.046,-0.0461,-0.0461,0,-0.0274,-0.0282,-0.0311,-0.0353,-0.0405,-0.0424,-0.0461,-0.0452,-0.0463,-0.0462,-0.0418,-0.0412,-0.0418,-0.0401,-0.0385,-0.039,-0.0387,-0.0391,-0.0398,-0.0404,-0.0394,-0.0391,-0.0314,0,0,0,0,0,-0.0257,-0.0255,-0.0281,-0.0317,-0.0362,-0.0397,-0.0426,-0.0447,-0.0457,-0.039,-0.0408,-0.0363,-0.0347,-0.0335,-0.0327,-0.037,-0.0402,-0.0362,-0.0414,-0.0435,-0.0441,-0.0438,0,0,0,0,0,0,-0.0245,-0.0256,-0.0259,-0.0275,-0.0297,-0.0342,-0.0362,-0.0373,-0.0329,-0.0338,-0.0317,-0.0351,-0.0329,-0.0344,-0.032,-0.0326,-0.0354,-0.0372,-0.0372,-0.0433,-0.0437,-0.0441,-0.0441,0,0,0,0,0]}]]